[[{"header":{"parameterUnit":"m.s-1","parameterCategory":1,"la1":30.2991,"la2":30.254,"lo1":-89.0895,"lo2":-89.0444,"dy":0.0017,"dx":0.0017,"nx":28,"ny":28,"refTime":"2025-12-26T09:00:00:Z","depth":0,"parameterNumber":2,"parameterNumberName":"U-component_of_WINDS"},"data":[0,0,0,0,0,0,0,0,0,0,0,0,0,0,0,0,0,0,0,0,0,0,0,0,0,0,0,0,0,0,0,0,0,0,0,0,0,0,0,0,0,0,0,0,0,0,0,0,0,0,0,0,0,0,0,0,0,0,0.7298,0.7299,0,0.7366,0.7366,0.7367,0.7421,0.7421,0.7422,0.7422,0.7493,0.7495,0.7496,0,0,0,0,0,0,0,0,0,0,0,0,0,0.7218,0.722,0.7298,0.7299,0.73,0.7365,0.7366,0.7367,0.7421,0.7421,0.7422,0.7423,0.7493,0.7494,0.7496,0,0,0,0,0,0,0,0,0,0,0,0,0,0.7266,0.722,0.7298,0.7334,0.7338,0.7365,0.7366,0.7368,0.7421,0.7421,0.7422,0.7423,0.7492,0.7494,0.7496,0.7493,0,0,0.7503,0.7504,0,0,0,0,0,0,0,0,0.7263,0.7269,0.7328,0.7332,0.7336,0.7386,0.7364,0.741,0.742,0.7389,0.7422,0.7423,0.7457,0.7462,0.7473,0.7496,0.75,0.7503,0.7504,0.7505,0.7506,0,0,0,0,0,0,0,0.726,0.7266,0.7325,0.7329,0.7334,0.7348,0.7356,0.7373,0.7418,0.7392,0.7396,0.7403,0.7459,0.7471,0.7475,0.7501,0.7503,0.7505,0.7506,0.7507,0.7528,0.7528,0,0,0,0,0,0,0.7251,0.7263,0.7323,0.7327,0.7301,0.7349,0.7358,0.7369,0.7418,0.7426,0.7403,0.7406,0.7467,0.7472,0.7478,0.7479,0.7505,0.7507,0.7508,0.7529,0.7528,0.7527,0,0,0,0,0,0,0.7249,0.7255,0.732,0.7296,0.7306,0.735,0.7362,0.737,0.7381,0.7426,0.7434,0.7406,0.7468,0.7475,0.749,0.7483,0.7508,0.751,0.753,0.7529,0.7528,0.7481,0,0,0,0,0,0,0.7246,0.7254,0.7253,0.7296,0.7307,0.7329,0.7361,0.7371,0.7385,0.7389,0.7431,0.7439,0.7469,0.7486,0.7492,0.7486,0.7511,0.7531,0.7529,0.7528,0.7484,0.7479,0.7475,0,0,0,0,0,0.7243,0.7237,0.7252,0.7259,0.7305,0.7329,0.7335,0.7369,0.7384,0.7383,0.7412,0.7437,0.7482,0.7487,0.7494,0.7489,0.7531,0.753,0.7528,0.7486,0.748,0.7475,0,0,0,0,0,0,0.7192,0.7243,0.7261,0.7268,0.7294,0.7338,0.7338,0.7362,0.7384,0.7388,0.743,0.7439,0.7449,0.747,0.7475,0.749,0.751,0.751,0.7476,0.747,0.7466,0.7461,0.7513,0,0,0,0,0,0.7181,0.7195,0.724,0.7242,0.7254,0.7293,0.7305,0.7329,0.7358,0.7369,0.7399,0.7426,0.7447,0.746,0.7481,0.7487,0.7498,0.7487,0.7482,0.7478,0.7478,0.7485,0.7481,0.7522,0.7522,0.7522,0,0,0.716,0.7189,0.7196,0.7232,0.7255,0.727,0.7302,0.7316,0.7328,0.7371,0.7388,0.7411,0.7444,0.7455,0.7462,0.7473,0.7469,0.7476,0.7473,0.7475,0.7483,0.7479,0.7476,0.7521,0.7522,0.7522,0,0,0.7128,0.7151,0.7157,0.7179,0.7214,0.724,0.7242,0.7283,0.73,0.7317,0.735,0.7366,0.7399,0.7423,0.7439,0.7419,0.7444,0.7424,0.7401,0.7408,0.7405,0.7402,0.7397,0.7394,0.7423,0.7423,0.7423,0,0.7098,0.7121,0.7157,0.7169,0.7185,0.7225,0.7232,0.7252,0.7291,0.7302,0.7314,0.7359,0.7385,0.7403,0.7398,0.7409,0.7414,0.742,0.7402,0.74,0.7398,0.7393,0.7391,0.7421,0.7421,0.7421,0.7422,0,0.7082,0.7098,0.7098,0.7136,0.7152,0.7161,0.72,0.7212,0.7235,0.7261,0.7279,0.7311,0.7341,0.7346,0.7369,0.7369,0.7375,0.7394,0.7416,0.7391,0.7388,0.7386,0.7417,0.7418,0.7419,0.742,0,0,0.702,0.7078,0.7078,0.7096,0.7138,0.7151,0.7164,0.7192,0.7203,0.7229,0.7242,0.727,0.7289,0.7307,0.7333,0.7338,0.7323,0.7357,0.7359,0.7352,0.7328,0.7314,0.7312,0.734,0.734,0.7339,0.7326,0,0.6997,0.702,0.7054,0.7067,0.7083,0.7122,0.7133,0.7161,0.7186,0.7204,0.7232,0.7253,0.7274,0.7286,0.7293,0.7323,0.7319,0.7325,0.7354,0.7354,0.7345,0.731,0.7295,0.728,0.7324,0.7324,0.7324,0,0.6972,0.6997,0.7011,0.7054,0.7062,0.7071,0.7101,0.7118,0.7151,0.7169,0.719,0.7218,0.7235,0.7254,0.7279,0.7282,0.7296,0.7313,0.7313,0.7318,0.7338,0.7315,0.7276,0.7274,0.7322,0.7322,0.7322,0,0.6928,0.6965,0.6979,0.6993,0.7042,0.7048,0.7069,0.7103,0.7118,0.7145,0.7156,0.7184,0.72,0.7222,0.7258,0.7268,0.728,0.7301,0.7298,0.7297,0.7299,0.7298,0.7263,0.7305,0.7305,0.7305,0.7305,0,0.6899,0.6907,0.696,0.6968,0.6979,0.7019,0.7028,0.7053,0.7083,0.7098,0.7134,0.7148,0.7194,0.7214,0.7242,0.726,0.7266,0.7282,0.729,0.728,0.7278,0.7291,0.7293,0.7305,0.7305,0.7305,0.7305,0,0.6851,0.6887,0.6905,0.6951,0.6962,0.6968,0.7008,0.7019,0.7046,0.7066,0.7073,0.7116,0.7142,0.718,0.7216,0.7236,0.725,0.7261,0.7239,0.7243,0.7238,0.7238,0.721,0.721,0.725,0.725,0.725,0,0.6831,0.6838,0.6885,0.6898,0.6917,0.6937,0.6954,0.6994,0.701,0.7049,0.7055,0.7084,0.7108,0.7148,0.7184,0.7213,0.7226,0.7215,0.7231,0.7221,0.7228,0.7228,0.723,0.7211,0.721,0.721,0.7209,0,0.6793,0.681,0.6832,0.6861,0.688,0.6905,0.6931,0.694,0.6986,0.7002,0.7029,0.7048,0.7086,0.7115,0.7149,0.7172,0.7199,0.7204,0.7205,0.7195,0.7182,0.7191,0.723,0.7204,0.7205,0.7205,0.7205,0.7206,0.6759,0.6768,0.6803,0.6827,0.6852,0.6876,0.6889,0.6919,0.6941,0.6975,0.6998,0.7023,0.7059,0.7107,0.7129,0.7151,0.7163,0.7163,0.7164,0.7164,0.7161,0.7178,0.7158,0.7158,0.7158,0.7158,0.7158,0,0.6724,0.6748,0.677,0.6807,0.6826,0.6849,0.688,0.6896,0.6918,0.6948,0.6972,0.7004,0.7032,0.707,0.7102,0.7112,0.7125,0.7119,0.712,0.7125,0.7148,0.7145,0.7108,0.7108,0.7108,0.7108,0.7108,0.7108,0.6708,0.6725,0.6747,0.6777,0.6802,0.6827,0.6844,0.6867,0.6892,0.6925,0.6949,0.6974,0.7008,0.7043,0.7071,0.7081,0.7092,0.7083,0.7097,0.7118,0.7123,0.7127,0.7125,0.7084,0.7084,0.7072,0.7072,0.7072]},{"header":{"parameterUnit":"m.s-1","parameterCategory":1,"la1":30.2991,"la2":30.254,"lo1":-89.0895,"lo2":-89.0444,"dy":0.0017,"dx":0.0017,"nx":28,"ny":28,"refTime":"2025-12-26T09:00:00:Z","depth":0,"parameterNumber":3,"parameterNumberName":"V-component_of_WINDS"},"data":[0,0,0,0,0,0,0,0,0,0,0,0,0,0,0,0,0,0,0,0,0,0,0,0,0,0,0,0,0,0,0,0,0,0,0,0,0,0,0,0,0,0,0,0,0,0,0,0,0,0,0,0,0,0,0,0,0,0,2.4734,2.4734,0,2.4748,2.4749,2.4749,2.4739,2.4739,2.4738,2.4738,2.475,2.4751,2.4752,0,0,0,0,0,0,0,0,0,0,0,0,0,2.4695,2.4696,2.4734,2.4734,2.4734,2.4748,2.4749,2.4749,2.4739,2.4739,2.4738,2.4738,2.475,2.4751,2.4752,0,0,0,0,0,0,0,0,0,0,0,0,0,2.4711,2.4696,2.4734,2.4731,2.4731,2.4748,2.4749,2.4749,2.4739,2.4739,2.4738,2.4737,2.475,2.4751,2.4752,2.4772,0,0,2.4755,2.4756,0,0,0,0,0,0,0,0,2.471,2.4712,2.4731,2.4731,2.4731,2.4741,2.474,2.4757,2.4739,2.4736,2.4738,2.4737,2.4748,2.4749,2.4753,2.4772,2.4773,2.4755,2.4756,2.4756,2.4757,0,0,0,0,0,0,0,2.4709,2.4712,2.4739,2.4731,2.4731,2.4729,2.473,2.4743,2.4745,2.4736,2.4736,2.4738,2.4747,2.4752,2.4753,2.4773,2.4755,2.4756,2.4757,2.4757,2.4811,2.4812,0,0,0,0,0,0,2.4709,2.4711,2.4739,2.474,2.4719,2.473,2.4731,2.4739,2.4745,2.4745,2.4738,2.4737,2.475,2.4752,2.4754,2.4778,2.4756,2.4758,2.4758,2.481,2.4811,2.4812,0,0,0,0,0,0,2.4708,2.4711,2.4738,2.4725,2.4729,2.4731,2.4739,2.4739,2.4744,2.4747,2.4747,2.4742,2.475,2.4752,2.4768,2.4778,2.4758,2.4759,2.4809,2.481,2.4812,2.4827,0,0,0,0,0,0,2.4707,2.4711,2.4719,2.4726,2.4729,2.4753,2.474,2.474,2.4746,2.4745,2.4751,2.4751,2.475,2.4766,2.4769,2.478,2.476,2.4808,2.481,2.4811,2.4826,2.4829,2.4831,0,0,0,0,0,2.4705,2.4722,2.4719,2.4723,2.4739,2.4754,2.4756,2.4754,2.4747,2.4755,2.4757,2.4751,2.4777,2.4768,2.4771,2.4782,2.4808,2.4809,2.4811,2.4824,2.4828,2.4831,0,0,0,0,0,0,2.4714,2.4722,2.472,2.4739,2.4746,2.4752,2.4762,2.4758,2.4766,2.4765,2.4762,2.4764,2.478,2.4783,2.4773,2.4802,2.4791,2.4793,2.48,2.4804,2.4806,2.4805,2.4761,0,0,0,0,0,2.4719,2.4731,2.4737,2.4753,2.4757,2.4759,2.4765,2.4764,2.477,2.4773,2.4776,2.4782,2.4791,2.4798,2.4807,2.4826,2.4827,2.4835,2.4838,2.484,2.4842,2.4854,2.4858,2.4818,2.4818,2.4817,0,0,2.4728,2.4734,2.4741,2.4755,2.476,2.4772,2.4761,2.4773,2.4782,2.4774,2.479,2.4792,2.4799,2.4817,2.4825,2.4819,2.4854,2.4843,2.4844,2.4845,2.4856,2.486,2.4863,2.4819,2.4818,2.4818,0,0,2.475,2.4756,2.4771,2.4777,2.4785,2.4787,2.479,2.4797,2.4799,2.4815,2.481,2.482,2.4836,2.4841,2.4846,2.4873,2.4868,2.4876,2.489,2.4901,2.4904,2.4907,2.4917,2.4921,2.4878,2.4878,2.4878,0,2.476,2.4778,2.4778,2.4792,2.4799,2.4794,2.4809,2.4814,2.4824,2.4829,2.4823,2.4844,2.4848,2.4868,2.4875,2.4879,2.4883,2.4875,2.4904,2.4907,2.4909,2.4919,2.4922,2.4879,2.4878,2.4878,2.4878,0,2.479,2.4803,2.4814,2.4826,2.4834,2.4848,2.485,2.4857,2.4856,2.4858,2.4875,2.488,2.489,2.4895,2.4892,2.4914,2.4911,2.4904,2.4893,2.4914,2.4923,2.4927,2.488,2.488,2.4879,2.4879,0,0,2.4817,2.4831,2.4835,2.4841,2.4851,2.4861,2.4875,2.4886,2.4893,2.4901,2.4913,2.4928,2.4922,2.4928,2.4927,2.4936,2.4958,2.4929,2.4929,2.4934,2.4983,2.4988,2.4992,2.4955,2.4955,2.4956,2.4983,0,2.484,2.4867,2.4868,2.4891,2.4903,2.49,2.4912,2.4919,2.4922,2.4932,2.4935,2.4946,2.4938,2.4941,2.4951,2.4953,2.4968,2.4951,2.4965,2.4966,2.4964,2.4997,2.5002,2.5027,2.4986,2.4987,2.4987,0,2.4871,2.4882,2.4907,2.4917,2.4922,2.4933,2.4944,2.4954,2.4963,2.4964,2.4971,2.4969,2.4983,2.4972,2.4991,2.498,2.4986,2.4989,2.499,2.4991,2.4978,2.4999,2.5035,2.5039,2.4992,2.4992,2.4992,0,2.4889,2.4909,2.4928,2.4933,2.4945,2.4953,2.4958,2.4966,2.4973,2.4983,2.4988,2.4998,2.5004,2.5012,2.5013,2.5004,2.5033,2.5021,2.5035,2.5035,2.5041,2.504,2.5078,2.5044,2.5044,2.5044,2.5044,0,2.4915,2.493,2.4936,2.4947,2.4965,2.4966,2.4983,2.4988,2.4995,2.5007,2.5004,2.5014,2.5015,2.5025,2.5026,2.5043,2.5045,2.5046,2.5046,2.5047,2.5047,2.5051,2.5049,2.5045,2.5045,2.5044,2.5044,0,2.4937,2.4942,2.4962,2.4972,2.4975,2.4988,2.4996,2.5007,2.501,2.5025,2.5028,2.5033,2.5046,2.5047,2.5062,2.5062,2.5083,2.508,2.508,2.508,2.5093,2.5092,2.5135,2.5141,2.5103,2.5103,2.5103,0,2.4954,2.4966,2.4979,2.4987,2.4993,2.5006,2.5015,2.5017,2.5025,2.5037,2.5046,2.5059,2.5069,2.509,2.5094,2.5105,2.5104,2.5118,2.5105,2.5106,2.5105,2.5104,2.5106,2.512,2.5121,2.5121,2.5121,0,2.4982,2.4985,2.4997,2.5011,2.5022,2.5032,2.5042,2.5049,2.5052,2.5062,2.5076,2.5084,2.51,2.5113,2.5125,2.5129,2.5126,2.5126,2.5129,2.513,2.513,2.5131,2.5087,2.5124,2.5124,2.5124,2.5124,2.5124,2.5003,2.5014,2.5025,2.504,2.5048,2.5058,2.5069,2.5075,2.5087,2.5101,2.5101,2.5117,2.5126,2.5142,2.5147,2.5159,2.5154,2.5159,2.5161,2.5162,2.5164,2.5128,2.5161,2.5161,2.5161,2.5161,2.516,0,2.5032,2.5039,2.5053,2.5068,2.508,2.5077,2.5089,2.5098,2.5113,2.5122,2.5133,2.515,2.5163,2.5169,2.5182,2.519,2.5189,2.5193,2.5193,2.5194,2.5167,2.5163,2.5194,2.5194,2.5194,2.5194,2.5194,2.5194,2.5048,2.5068,2.5072,2.5096,2.5103,2.512,2.5126,2.5136,2.5143,2.5163,2.5174,2.5179,2.5187,2.52,2.5212,2.5214,2.5219,2.5224,2.5225,2.5199,2.5196,2.5193,2.5189,2.5225,2.5225,2.5251,2.5251,2.5251]}]]